| time (UTC) | temp F | wind direction | speed knots | gust knots | rain 1hr in | rain 24hr in | rain mn in | humidity % | barometer mb |
| 20260503192721 | 58 | 344 | 6.1 | 7.8 | 0.00 | 0.00 | 0.00 | 41 | 1018.4 |
| 20260503192216 | 58 | 296 | 5.2 | 7.0 | 0.00 | 0.00 | 0.00 | 40 | 1018.5 |
| 20260503191713 | 58 | 332 | 3.5 | 7.0 | 0.00 | 0.00 | 0.00 | 39 | 1018.5 |
| 20260503191210 | 57 | 256 | 3.5 | 3.5 | 0.00 | 0.00 | 0.00 | 41 | 1018.6 |
| 20260503190707 | 56 | 322 | 2.6 | 7.8 | 0.00 | 0.00 | 0.00 | 43 | 1018.7 |
| 20260503190203 | 55 | 278 | 5.2 | 7.0 | 0.00 | 0.00 | 0.00 | 39 | 1018.6 |
| 20260503185701 | 54 | 281 | 1.7 | 2.6 | 0.00 | 0.00 | 0.00 | 46 | 1018.7 |
| 20260503185156 | 54 | 322 | 4.3 | 8.7 | 0.00 | 0.00 | 0.00 | 43 | 1018.7 |
| 20260503184651 | 55 | 353 | 3.5 | 6.1 | 0.00 | 0.00 | 0.00 | 43 | 1019.2 |
| 20260503184148 | 56 | 346 | 3.5 | 7.0 | 0.00 | 0.00 | 0.00 | 40 | 1019.1 |
| 20260503183644 | 56 | 278 | 6.1 | 7.8 | 0.00 | 0.00 | 0.00 | 43 | 1018.9 |
| 20260503183142 | 56 | 123 | 2.6 | 5.2 | 0.00 | 0.00 | 0.00 | 35 | 1019.0 |
| 20260503182640 | 55 | 337 | 5.2 | 7.8 | 0.00 | 0.00 | 0.00 | 40 | 1019.2 |
| 20260503182139 | 56 | 221 | 6.1 | 9.6 | 0.00 | 0.00 | 0.00 | 41 | 1019.1 |
| 20260503181634 | 56 | 346 | 2.6 | 6.1 | 0.00 | 0.00 | 0.00 | 44 | 1019.1 |
| 20260503181131 | 55 | 273 | 2.6 | 5.2 | 0.00 | 0.00 | 0.00 | 45 | 1019.2 |
| 20260503180628 | 55 | 268 | 2.6 | 3.5 | 0.00 | 0.00 | 0.00 | 39 | 1019.3 |
| 20260503180126 | 55 | 324 | 5.2 | 7.8 | 0.00 | 0.00 | 0.00 | 46 | 1019.1 |
| 20260503175622 | 54 | 299 | 5.2 | 7.8 | 0.00 | 0.00 | 0.00 | 44 | 1019.4 |
| 20260503175119 | 55 | 311 | 3.5 | 8.7 | 0.00 | 0.00 | 0.00 | 43 | 1019.1 |
| 20260503174616 | 54 | 307 | 3.5 | 7.0 | 0.00 | 0.00 | 0.00 | 44 | 1019.3 |
| 20260503174113 | 53 | 307 | 4.3 | 8.7 | 0.00 | 0.00 | 0.00 | 44 | 1019.0 |
| 20260503173608 | 54 | 269 | 3.5 | 7.0 | 0.00 | 0.00 | 0.00 | 45 | 1019.3 |
| 20260503173105 | 55 | 339 | 1.7 | 2.6 | 0.00 | 0.00 | 0.00 | 43 | 1019.5 |
| 20260503172602 | 54 | 318 | 2.6 | 6.1 | 0.00 | 0.00 | 0.00 | 42 | 1019.4 |
| 20260503172100 | 53 | 289 | 1.7 | 2.6 | 0.00 | 0.00 | 0.00 | 45 | 1019.5 |
| 20260503171555 | 52 | 260 | 2.6 | 7.0 | 0.00 | 0.00 | 0.00 | 45 | 1019.8 |
| 20260503171054 | 52 | 275 | 3.5 | 7.0 | 0.00 | 0.00 | 0.00 | 42 | 1019.9 |
| 20260503170549 | 51 | 297 | 2.6 | 5.2 | 0.00 | 0.00 | 0.00 | 49 | 1019.8 |
| 20260503150942 | 49 | 4 | 1.7 | 3.5 | 0.00 | 0.00 | 0.00 | 52 | 1020.8 |
| 20260503150439 | 47 | 263 | 0.9 | 2.6 | 0.00 | 0.00 | 0.00 | 51 | 1020.8 |
| 20260503131332 | 41 | 317 | 1.7 | 2.6 | 0.00 | 0.00 | 0.00 | 66 | 1020.6 |
| 20260503130829 | 40 | 333 | 2.6 | 2.6 | 0.00 | 0.00 | 0.00 | 68 | 1020.4 |
| 20260503130327 | 40 | 332 | 1.7 | 5.2 | 0.00 | 0.00 | 0.00 | 68 | 1020.6 |
| 20260503110720 | 31 | 206 | 0.0 | 0.0 | 0.00 | 0.00 | 0.00 | 91 | 1019.5 |
| 20260503110217 | 32 | 206 | 0.0 | 0.0 | 0.00 | 0.00 | 0.00 | 91 | 1019.4 |
| 20260503100144 | 33 | 206 | 0.0 | 0.0 | 0.00 | 0.00 | 0.00 | 89 | 1018.7 |
| 20260503081538 | 36 | 206 | 0.0 | 0.0 | 0.00 | 0.00 | 0.00 | 82 | 1018.1 |
| 20260503081036 | 37 | 206 | 0.0 | 0.0 | 0.00 | 0.00 | 0.00 | 81 | 1018.0 |
| 20260503080532 | 37 | 206 | 0.0 | 0.0 | 0.00 | 0.00 | 0.00 | 80 | 1018.1 |
| 20260503072506 | 38 | 319 | 0.9 | 0.9 | 0.00 | 0.00 | 0.00 | 77 | 1017.7 |
| 20260503072003 | 39 | 352 | 0.0 | 0.0 | 0.00 | 0.00 | 0.00 | 76 | 1017.5 |
| 20260503071500 | 39 | 314 | 0.9 | 2.6 | 0.00 | 0.00 | 0.00 | 75 | 1017.6 |
| 20260503070955 | 39 | 351 | 1.7 | 2.6 | 0.00 | 0.00 | 0.00 | 75 | 1017.5 |
| 20260503070453 | 39 | 275 | 0.0 | 2.6 | 0.00 | 0.00 | 0.00 | 75 | 1017.6 |
| 20260503054905 | 38 | 231 | 0.0 | 0.0 | 0.00 | 0.00 | 0.00 | 76 | 1017.7 |
| 20260503054401 | 38 | 231 | 0.0 | 0.0 | 0.00 | 0.00 | 0.00 | 78 | 1017.5 |
| 20260503053900 | 38 | 231 | 0.0 | 0.0 | 0.00 | 0.00 | 0.00 | 80 | 1017.6 |
| 20260503053358 | 38 | 231 | 0.0 | 0.0 | 0.00 | 0.00 | 0.00 | 76 | 1017.5 |
| 20260503052853 | 38 | 231 | 0.0 | 0.0 | 0.00 | 0.00 | 0.00 | 77 | 1017.5 |
| 20260503052350 | 38 | 231 | 0.0 | 0.0 | 0.00 | 0.00 | 0.00 | 75 | 1017.5 |
| 20260503051847 | 39 | 231 | 0.0 | 0.0 | 0.00 | 0.00 | 0.00 | 74 | 1017.3 |
| 20260503051343 | 39 | 141 | 0.0 | 0.0 | 0.00 | 0.00 | 0.00 | 76 | 1017.3 |
| 20260503050840 | 39 | 141 | 0.0 | 0.0 | 0.00 | 0.00 | 0.00 | 75 | 1017.5 |
| 20260503050336 | 39 | 141 | 0.0 | 0.0 | 0.00 | 0.00 | 0.00 | 74 | 1017.3 |
| 20260503045834 | 39 | 149 | 0.0 | 0.0 | 0.00 | 0.00 | 0.00 | 75 | 1017.5 |
| 20260503045332 | 39 | 174 | 0.0 | 0.0 | 0.00 | 0.00 | 0.00 | 73 | 1017.7 |
| 20260503044828 | 39 | 62 | 0.0 | 0.9 | 0.00 | 0.00 | 0.00 | 74 | 1017.6 |
| 20260503044325 | 39 | 286 | 0.9 | 0.9 | 0.00 | 0.00 | 0.00 | 74 | 1017.6 |
| 20260503043822 | 39 | 321 | 0.9 | 1.7 | 0.00 | 0.00 | 0.00 | 73 | 1017.7 |
| 20260503043319 | 39 | 19 | 0.0 | 0.9 | 0.00 | 0.00 | 0.00 | 75 | 1017.7 |
| 20260503042815 | 39 | 346 | 0.0 | 0.0 | 0.00 | 0.00 | 0.00 | 74 | 1017.7 |
| 20260503042312 | 39 | 254 | 0.0 | 0.9 | 0.00 | 0.00 | 0.00 | 74 | 1017.7 |
| 20260503041808 | 39 | 239 | 0.9 | 2.6 | 0.00 | 0.00 | 0.00 | 73 | 1017.7 |
| 20260503041306 | 39 | 186 | 0.0 | 0.0 | 0.00 | 0.00 | 0.00 | 74 | 1017.7 |
| 20260503040803 | 39 | 105 | 0.0 | 0.0 | 0.00 | 0.00 | 0.00 | 73 | 1017.7 |
| 20260503040300 | 40 | 58 | 0.0 | 0.0 | 0.00 | 0.00 | 0.00 | 74 | 1017.7 |
| 20260503035757 | 40 | 176 | 0.0 | 0.0 | 0.00 | 0.00 | 0.00 | 75 | 1017.6 |
| 20260503035254 | 40 | 299 | 0.0 | 0.0 | 0.00 | 0.00 | 0.00 | 74 | 1017.8 |
| 20260503034751 | 40 | 159 | 0.0 | 0.0 | 0.00 | 0.00 | 0.00 | 73 | 1017.5 |
| 20260503034248 | 40 | 244 | 0.0 | 0.0 | 0.00 | 0.00 | 0.00 | 72 | 1017.8 |
| 20260503033746 | 40 | 293 | 0.0 | 0.0 | 0.00 | 0.00 | 0.00 | 72 | 1017.7 |
| 20260503033243 | 40 | 340 | 0.0 | 0.0 | 0.00 | 0.00 | 0.00 | 73 | 1017.6 |
| 20260503032741 | 40 | 334 | 0.0 | 0.9 | 0.00 | 0.00 | 0.00 | 73 | 1017.6 |
| 20260503032240 | 40 | 261 | 0.0 | 0.9 | 0.00 | 0.00 | 0.00 | 75 | 1017.6 |
| 20260503031737 | 40 | 305 | 0.0 | 0.0 | 0.00 | 0.00 | 0.00 | 72 | 1017.9 |
| 20260503031235 | 40 | 30 | 0.0 | 0.0 | 0.00 | 0.00 | 0.00 | 72 | 1017.8 |
| 20260503030731 | 40 | 336 | 0.9 | 1.7 | 0.00 | 0.00 | 0.00 | 72 | 1017.6 |
| 20260503030227 | 40 | 24 | 0.0 | 0.0 | 0.00 | 0.00 | 0.00 | 71 | 1017.7 |
| 20260503025724 | 40 | 307 | 0.9 | 1.7 | 0.00 | 0.00 | 0.00 | 71 | 1017.6 |
| 20260503025222 | 41 | 328 | 0.9 | 1.7 | 0.00 | 0.00 | 0.00 | 72 | 1017.6 |
| 20260503024718 | 41 | 305 | 1.7 | 2.6 | 0.00 | 0.00 | 0.00 | 70 | 1017.6 |
| 20260503024216 | 41 | 2 | 0.9 | 2.6 | 0.00 | 0.00 | 0.00 | 70 | 1017.6 |
| 20260503023712 | 41 | 349 | 0.9 | 3.5 | 0.00 | 0.00 | 0.00 | 71 | 1017.7 |
| 20260503023204 | 41 | 154 | 0.0 | 0.9 | 0.00 | 0.00 | 0.00 | 71 | 1017.8 |
| 20260503022700 | 41 | 1 | 0.9 | 3.5 | 0.00 | 0.00 | 0.00 | 70 | 1017.8 |
| 20260503022159 | 41 | 314 | 2.6 | 2.6 | 0.00 | 0.00 | 0.00 | 71 | 1017.8 |
| 20260503021657 | 41 | 345 | 1.7 | 2.6 | 0.00 | 0.00 | 0.00 | 70 | 1017.7 |
| 20260503021153 | 42 | 309 | 0.9 | 1.7 | 0.00 | 0.00 | 0.00 | 70 | 1017.9 |
| 20260503020651 | 42 | 358 | 3.5 | 6.1 | 0.00 | 0.00 | 0.00 | 70 | 1017.5 |
| 20260503020148 | 42 | 329 | 1.7 | 3.5 | 0.00 | 0.00 | 0.00 | 70 | 1017.8 |
| 20260503015645 | 42 | 334 | 1.7 | 2.6 | 0.00 | 0.00 | 0.00 | 69 | 1017.6 |
| 20260503015142 | 42 | 6 | 0.0 | 2.6 | 0.00 | 0.00 | 0.00 | 70 | 1017.6 |
| 20260503014637 | 42 | 318 | 2.6 | 6.1 | 0.00 | 0.00 | 0.00 | 69 | 1017.6 |
| 20260503014135 | 43 | 321 | 3.5 | 5.2 | 0.00 | 0.00 | 0.00 | 69 | 1017.3 |
| 20260503013633 | 43 | 321 | 1.7 | 2.6 | 0.00 | 0.00 | 0.00 | 69 | 1017.3 |
| 20260503013131 | 43 | 318 | 1.7 | 2.6 | 0.00 | 0.00 | 0.00 | 69 | 1017.5 |
| 20260503012627 | 43 | 12 | 2.6 | 3.5 | 0.00 | 0.00 | 0.00 | 69 | 1017.3 |
| 20260503012124 | 43 | 344 | 2.6 | 6.1 | 0.00 | 0.00 | 0.00 | 69 | 1017.2 |
| 20260503011621 | 43 | 349 | 1.7 | 3.5 | 0.00 | 0.00 | 0.00 | 69 | 1017.0 |
| 20260503011118 | 43 | 340 | 1.7 | 1.7 | 0.00 | 0.00 | 0.00 | 69 | 1017.1 |
| 20260503010614 | 44 | 271 | 1.7 | 2.6 | 0.00 | 0.00 | 0.00 | 69 | 1017.2 |
| 20260503010112 | 44 | 319 | 0.0 | 1.7 | 0.00 | 0.00 | 0.00 | 66 | 1016.8 |
| 20260503005608 | 44 | 341 | 1.7 | 2.6 | 0.00 | 0.00 | 0.00 | 66 | 1016.9 |
| 20260503005106 | 44 | 26 | 0.0 | 1.7 | 0.00 | 0.00 | 0.00 | 65 | 1016.8 |
| 20260503004602 | 44 | 347 | 0.9 | 1.7 | 0.00 | 0.00 | 0.00 | 66 | 1016.7 |
| 20260503004101 | 44 | 335 | 0.9 | 3.5 | 0.00 | 0.00 | 0.00 | 66 | 1016.7 |
| 20260503003556 | 44 | 347 | 0.0 | 3.5 | 0.00 | 0.00 | 0.00 | 66 | 1016.5 |
| 20260503003054 | 45 | 318 | 3.5 | 7.0 | 0.00 | 0.00 | 0.00 | 64 | 1016.5 |
| 20260503002550 | 45 | 327 | 4.3 | 7.0 | 0.00 | 0.00 | 0.00 | 62 | 1016.2 |
| 20260503002048 | 45 | 0 | 0.0 | 2.6 | 0.00 | 0.00 | 0.00 | 61 | 1016.2 |
| 20260503001543 | 46 | 3 | 0.0 | 0.9 | 0.00 | 0.00 | 0.00 | 58 | 1016.0 |
| 20260503001041 | 46 | 315 | 1.7 | 5.2 | 0.00 | 0.00 | 0.00 | 57 | 1016.3 |
| 20260503000538 | 46 | 336 | 6.1 | 8.7 | 0.00 | 0.00 | 0.00 | 55 | 1016.1 |
| 20260503000035 | 46 | 294 | 2.6 | 5.2 | 0.00 | 0.00 | 0.00 | 55 | 1016.1 |
| 20260502235532 | 46 | 309 | 2.6 | 6.1 | 0.00 | 0.00 | 0.00 | 56 | 1015.9 |
| 20260502235030 | 47 | 9 | 3.5 | 7.0 | 0.00 | 0.00 | 0.00 | 54 | 1016.0 |
| 20260502234526 | 47 | 319 | 2.6 | 3.5 | 0.00 | 0.00 | 0.00 | 57 | 1015.9 |
| 20260502234023 | 47 | 1 | 1.7 | 5.2 | 0.00 | 0.00 | 0.00 | 54 | 1015.7 |
| 20260502233518 | 47 | 307 | 2.6 | 3.5 | 0.00 | 0.00 | 0.00 | 53 | 1015.8 |
| 20260502233016 | 47 | 255 | 0.9 | 2.6 | 0.00 | 0.00 | 0.00 | 52 | 1015.5 |
| 20260502232511 | 48 | 324 | 2.6 | 5.2 | 0.00 | 0.00 | 0.00 | 50 | 1015.6 |
| 20260502232009 | 48 | 309 | 3.5 | 5.2 | 0.00 | 0.00 | 0.00 | 50 | 1015.6 |
| 20260502231506 | 48 | 285 | 0.9 | 5.2 | 0.00 | 0.00 | 0.00 | 49 | 1015.5 |
| 20260502231004 | 48 | 343 | 3.5 | 6.1 | 0.00 | 0.00 | 0.00 | 51 | 1015.5 |
| 20260502230502 | 48 | 301 | 1.7 | 5.2 | 0.00 | 0.00 | 0.00 | 50 | 1015.3 |
| 20260502230000 | 48 | 332 | 1.7 | 6.1 | 0.00 | 0.00 | 0.00 | 49 | 1015.3 |
| 20260502225455 | 48 | 324 | 2.6 | 2.6 | 0.00 | 0.00 | 0.00 | 51 | 1015.3 |
| 20260502224952 | 48 | 298 | 2.6 | 5.2 | 0.00 | 0.00 | 0.00 | 50 | 1015.4 |
| 20260502224448 | 48 | 318 | 1.7 | 6.1 | 0.00 | 0.00 | 0.00 | 47 | 1015.1 |
| 20260502223945 | 48 | 355 | 2.6 | 2.6 | 0.00 | 0.00 | 0.00 | 48 | 1015.3 |
| 20260502223443 | 48 | 270 | 1.7 | 5.2 | 0.00 | 0.00 | 0.00 | 50 | 1015.4 |
| 20260502222941 | 49 | 329 | 4.3 | 6.1 | 0.00 | 0.00 | 0.00 | 48 | 1015.3 |
| 20260502222438 | 49 | 316 | 3.5 | 6.1 | 0.00 | 0.00 | 0.00 | 47 | 1015.0 |
| 20260502221934 | 49 | 337 | 3.5 | 6.1 | 0.00 | 0.00 | 0.00 | 46 | 1015.3 |
| 20260502221431 | 49 | 353 | 0.9 | 3.5 | 0.00 | 0.00 | 0.00 | 51 | 1015.1 |
| 20260502220928 | 49 | 325 | 5.2 | 6.1 | 0.00 | 0.00 | 0.00 | 46 | 1015.1 |
| 20260502220423 | 49 | 279 | 3.5 | 6.1 | 0.00 | 0.00 | 0.00 | 45 | 1015.3 |
| 20260502215920 | 49 | 339 | 2.6 | 5.2 | 0.00 | 0.00 | 0.00 | 45 | 1015.1 |
| 20260502215418 | 49 | 334 | 3.5 | 5.2 | 0.00 | 0.00 | 0.00 | 49 | 1015.0 |
| 20260502214914 | 49 | 336 | 1.7 | 3.5 | 0.00 | 0.00 | 0.00 | 47 | 1015.0 |
| 20260502214411 | 50 | 353 | 3.5 | 6.1 | 0.00 | 0.00 | 0.00 | 47 | 1014.9 |
| 20260502213908 | 50 | 251 | 3.5 | 7.8 | 0.00 | 0.00 | 0.00 | 48 | 1015.0 |
| 20260502213405 | 50 | 278 | 3.5 | 6.1 | 0.00 | 0.00 | 0.00 | 50 | 1014.9 |
| 20260502212904 | 49 | 342 | 1.7 | 5.2 | 0.00 | 0.00 | 0.00 | 49 | 1015.1 |
| 20260502212402 | 49 | 12 | 0.0 | 7.0 | 0.00 | 0.00 | 0.00 | 49 | 1015.0 |
| 20260502211859 | 49 | 297 | 3.5 | 7.8 | 0.00 | 0.00 | 0.00 | 45 | 1015.0 |
| 20260502211354 | 50 | 285 | 3.5 | 6.1 | 0.00 | 0.00 | 0.00 | 49 | 1015.3 |
| 20260502210852 | 51 | 295 | 3.5 | 7.0 | 0.00 | 0.00 | 0.00 | 46 | 1014.9 |
| 20260502210349 | 53 | 331 | 5.2 | 8.7 | 0.00 | 0.00 | 0.00 | 43 | 1014.9 |
| 20260502205846 | 50 | 357 | 0.9 | 2.6 | 0.00 | 0.00 | 0.00 | 46 | 1014.8 |
| 20260502205342 | 50 | 337 | 3.5 | 6.1 | 0.00 | 0.00 | 0.00 | 49 | 1015.1 |
| 20260502204839 | 50 | 300 | 1.7 | 3.5 | 0.00 | 0.00 | 0.00 | 48 | 1014.9 |
| 20260502204336 | 50 | 336 | 2.6 | 5.2 | 0.00 | 0.00 | 0.00 | 47 | 1015.3 |
| 20260502203834 | 50 | 300 | 3.5 | 6.1 | 0.00 | 0.00 | 0.00 | 50 | 1015.0 |
| 20260502203331 | 50 | 308 | 3.5 | 7.8 | 0.00 | 0.00 | 0.00 | 46 | 1015.0 |
| 20260502202831 | 50 | 324 | 4.3 | 7.0 | 0.00 | 0.00 | 0.00 | 46 | 1015.0 |
| 20260502202329 | 50 | 310 | 2.6 | 3.5 | 0.00 | 0.00 | 0.00 | 44 | 1015.3 |
| 20260502201827 | 50 | 324 | 4.3 | 6.1 | 0.00 | 0.00 | 0.00 | 50 | 1015.0 |
| 20260502201323 | 50 | 307 | 3.5 | 5.2 | 0.00 | 0.00 | 0.00 | 46 | 1015.0 |
| 20260502200819 | 50 | 289 | 1.7 | 6.1 | 0.00 | 0.00 | 0.00 | 44 | 1015.1 |
| 20260502200315 | 50 | 226 | 0.9 | 5.2 | 0.00 | 0.00 | 0.00 | 47 | 1015.3 |
| 20260502195814 | 50 | 285 | 2.6 | 3.5 | 0.00 | 0.00 | 0.00 | 44 | 1015.3 |
| 20260502195310 | 50 | 312 | 1.7 | 7.8 | 0.00 | 0.00 | 0.00 | 44 | 1015.5 |
| 20260502194806 | 51 | 3 | 5.2 | 7.0 | 0.00 | 0.00 | 0.00 | 48 | 1015.4 |
| 20260502194304 | 51 | 320 | 1.7 | 3.5 | 0.00 | 0.00 | 0.00 | 44 | 1015.4 |
| 20260502193759 | 51 | 329 | 2.6 | 3.5 | 0.00 | 0.00 | 0.00 | 46 | 1015.5 |
| 20260502193257 | 50 | 338 | 1.7 | 5.2 | 0.00 | 0.00 | 0.00 | 48 | 1015.4 |
| 20260502192757 | 51 | 315 | 1.7 | 2.6 | 0.00 | 0.00 | 0.00 | 46 | 1015.6 |